When you browse on this site, cookies collect data to enhance your experience and personalize the content and advertising you see.
Visit our Privacy Policy to learn more. By continuing to use the site, you agree to this use of cookies and data.

Hourly Weather Tynytsya

Today, 15 July, Wednesday

Time Temperature Precipitation Wind Pressure Humidity
00:00 +13°C° 0.1 mm 6 mps 742 mmHg 92%
01:00 +13°C° 0.1 mm 6 mps 742 mmHg 92%
02:00 +13°C° 0 mm 6 mps 742 mmHg 94%
03:00 +13°C° 0.2 mm 5 mps 742 mmHg 93%
04:00 +12°C° 0.2 mm 5 mps 742 mmHg 93%
05:00 +12°C° 0.2 mm 5 mps 742 mmHg 93%
06:00 +13°C° 0.1 mm 6 mps 743 mmHg 89%
07:00 +14°C° 0.1 mm 6 mps 743 mmHg 86%
08:00 +15°C° 0 mm 6 mps 743 mmHg 81%
09:00 +16°C° 0.2 mm 6 mps 743 mmHg 78%
10:00 +17°C° 0.2 mm 6 mps 743 mmHg 74%
11:00 +17°C° 0.2 mm 7 mps 744 mmHg 70%
12:00 +19°C° 0.3 mm 6 mps 744 mmHg 71%
13:00 +19°C° 0.3 mm 6 mps 744 mmHg 72%
14:00 +19°C° 0.3 mm 6 mps 745 mmHg 72%
15:00 +17°C° 0.1 mm 5 mps 745 mmHg 73%
16:00 +17°C° 0.1 mm 5 mps 745 mmHg 74%
17:00 +17°C° 0.1 mm 4 mps 745 mmHg 75%
18:00 +16°C° 0 mm 3 mps 745 mmHg 78%
19:00 +15°C° 0 mm 2 mps 746 mmHg 82%
20:00 +14°C° 0 mm 1 mps 746 mmHg 85%
21:00 +13°C° 0 mm 1 mps 746 mmHg 86%
22:00 +13°C° 0 mm 1 mps 746 mmHg 88%
23:00 +12°C° 0 mm 1 mps 746 mmHg 89%

Tomorrow, 16 July, Thursday

Time Temperature Precipitation Wind Pressure Humidity
00:00 +12°C° 0 mm 2 mps 746 mmHg 90%
01:00 +12°C° 0 mm 2 mps 746 mmHg 91%
02:00 +12°C° 0 mm 2 mps 746 mmHg 92%
03:00 +12°C° 0 mm 2 mps 746 mmHg 93%
04:00 +12°C° 0 mm 2 mps 746 mmHg 93%
05:00 +12°C° 0 mm 2 mps 746 mmHg 93%
06:00 +13°C° 0 mm 2 mps 746 mmHg 87%
07:00 +15°C° 0 mm 2 mps 746 mmHg 80%
08:00 +17°C° 0 mm 2 mps 747 mmHg 74%
09:00 +18°C° 0 mm 2 mps 747 mmHg 69%
10:00 +19°C° 0 mm 2 mps 747 mmHg 64%
11:00 +20°C° 0 mm 2 mps 747 mmHg 59%
12:00 +21°C° 0 mm 2 mps 747 mmHg 58%
13:00 +21°C° 0 mm 2 mps 747 mmHg 56%
14:00 +23°C° 0 mm 2 mps 747 mmHg 54%
15:00 +23°C° 0 mm 2 mps 746 mmHg 56%
16:00 +23°C° 0 mm 2 mps 746 mmHg 58%
17:00 +23°C° 0 mm 2 mps 746 mmHg 60%
18:00 +21°C° 0 mm 1 mps 746 mmHg 64%
19:00 +19°C° 0 mm 1 mps 746 mmHg 69%
20:00 +18°C° 0 mm 1 mps 746 mmHg 73%
21:00 +16°C° 0 mm 1 mps 746 mmHg 74%
22:00 +16°C° 0 mm 1 mps 746 mmHg 75%
23:00 +15°C° 0 mm 1 mps 746 mmHg 76%

Day after tomorrow, 17 July, Friday

Time Temperature Precipitation Wind Pressure Humidity
00:00 +15°C° 0 mm 1 mps 746 mmHg 78%
01:00 +15°C° 0 mm 1 mps 747 mmHg 79%
02:00 +14°C° 0 mm 1 mps 747 mmHg 80%
03:00 +14°C° 0 mm 1 mps 747 mmHg 82%
04:00 +14°C° 0 mm 1 mps 747 mmHg 83%
05:00 +14°C° 0 mm 1 mps 747 mmHg 84%
06:00 +16°C° 0 mm 1 mps 747 mmHg 79%
07:00 +19°C° 0 mm 1 mps 747 mmHg 74%
08:00 +21°C° 0 mm 1 mps 748 mmHg 69%
09:00 +22°C° 0 mm 1 mps 748 mmHg 65%
10:00 +23°C° 0 mm 1 mps 748 mmHg 62%
11:00 +24°C° 0 mm 1 mps 748 mmHg 58%
12:00 +25°C° 0 mm 1 mps 748 mmHg 56%
13:00 +25°C° 0 mm 1 mps 748 mmHg 55%
14:00 +26°C° 0 mm 1 mps 748 mmHg 53%
15:00 +24°C° 0.1 mm 0 mps 748 mmHg 56%
16:00 +23°C° 0.1 mm 0 mps 748 mmHg 58%
17:00 +23°C° 0.1 mm 0 mps 748 mmHg 61%
18:00 +24°C° 0 mm 1 mps 748 mmHg 65%
19:00 +22°C° 0 mm 1 mps 748 mmHg 68%
20:00 +20°C° 0 mm 1 mps 748 mmHg 72%
21:00 +20°C° 0 mm 1 mps 748 mmHg 74%
22:00 +19°C° 0 mm 1 mps 748 mmHg 75%
23:00 +18°C° 0 mm 1 mps 749 mmHg 77%

18 July, Saturday

Time Temperature Precipitation Wind Pressure Humidity
00:00 +18°C° 0 mm 1 mps 749 mmHg 77%
01:00 +16°C° 0 mm 1 mps 749 mmHg 78%
02:00 +16°C° 0 mm 1 mps 749 mmHg 78%
03:00 +15°C° 0 mm 0 mps 749 mmHg 79%
04:00 +15°C° 0 mm 0 mps 749 mmHg 80%
05:00 +15°C° 0 mm 0 mps 749 mmHg 81%
06:00 +17°C° 0 mm 0 mps 749 mmHg 77%
07:00 +19°C° 0 mm 0 mps 750 mmHg 72%
08:00 +20°C° 0 mm 0 mps 750 mmHg 68%
09:00 +22°C° 0 mm 0 mps 750 mmHg 65%
10:00 +23°C° 0 mm 0 mps 750 mmHg 62%
11:00 +24°C° 0 mm 0 mps 750 mmHg 59%
12:00 +24°C° 0.1 mm 0 mps 750 mmHg 57%
13:00 +27°C° 0.1 mm 1 mps 750 mmHg 55%
14:00 +27°C° 0.1 mm 1 mps 750 mmHg 53%
15:00 +27°C° 0.1 mm 1 mps 750 mmHg 57%
16:00 +26°C° 0.1 mm 1 mps 749 mmHg 60%
17:00 +26°C° 0.1 mm 1 mps 749 mmHg 63%
18:00 +24°C° 0 mm 1 mps 749 mmHg 69%
19:00 +21°C° 0 mm 2 mps 749 mmHg 75%
20:00 +20°C° 0 mm 2 mps 750 mmHg 81%
21:00 +19°C° 0 mm 2 mps 750 mmHg 82%
22:00 +18°C° 0 mm 2 mps 750 mmHg 83%
23:00 +17°C° 0 mm 2 mps 750 mmHg 84%

19 July, Sunday

Time Temperature Precipitation Wind Pressure Humidity
00:00 +17°C° 0 mm 2 mps 750 mmHg 84%
01:00 +16°C° 0 mm 2 mps 750 mmHg 83%
02:00 +16°C° 0 mm 2 mps 750 mmHg 82%
03:00 +16°C° 0 mm 2 mps 750 mmHg 84%
04:00 +16°C° 0 mm 2 mps 750 mmHg 85%
05:00 +15°C° 0 mm 2 mps 750 mmHg 87%
06:00 +17°C° 0 mm 2 mps 750 mmHg 82%
07:00 +19°C° 0 mm 2 mps 749 mmHg 78%
08:00 +21°C° 0 mm 2 mps 749 mmHg 74%
09:00 +23°C° 0 mm 2 mps 749 mmHg 68%
10:00 +24°C° 0 mm 2 mps 749 mmHg 63%
11:00 +25°C° 0 mm 3 mps 749 mmHg 58%
12:00 +25°C° 0 mm 3 mps 749 mmHg 56%
13:00 +26°C° 0 mm 2 mps 749 mmHg 54%
14:00 +26°C° 0 mm 2 mps 748 mmHg 51%
15:00 +26°C° 0 mm 2 mps 748 mmHg 54%
16:00 +26°C° 0 mm 2 mps 748 mmHg 56%
17:00 +25°C° 0 mm 2 mps 748 mmHg 58%
18:00 +24°C° 0 mm 1 mps 748 mmHg 62%
19:00 +22°C° 0 mm 1 mps 748 mmHg 67%
20:00 +20°C° 0 mm 1 mps 748 mmHg 71%
21:00 +19°C° 0 mm 1 mps 748 mmHg 73%
22:00 +19°C° 0 mm 1 mps 748 mmHg 74%
23:00 +18°C° 0 mm 1 mps 747 mmHg 76%

20 July, Monday

Time Temperature Precipitation Wind Pressure Humidity
00:00 +18°C° 0 mm 1 mps 747 mmHg 77%
01:00 +16°C° 0 mm 1 mps 747 mmHg 79%
02:00 +16°C° 0 mm 1 mps 747 mmHg 80%
03:00 +16°C° 0 mm 1 mps 747 mmHg 81%
04:00 +15°C° 0 mm 0 mps 747 mmHg 81%
05:00 +15°C° 0 mm 0 mps 747 mmHg 82%
06:00 +19°C° 0 mm 1 mps 747 mmHg 77%
07:00 +20°C° 0 mm 1 mps 747 mmHg 73%
08:00 +22°C° 0 mm 1 mps 747 mmHg 69%
09:00 +23°C° 0 mm 1 mps 747 mmHg 65%
10:00 +24°C° 0 mm 2 mps 746 mmHg 61%
11:00 +25°C° 0 mm 2 mps 746 mmHg 58%
12:00 +25°C° 0 mm 2 mps 746 mmHg 56%
13:00 +26°C° 0 mm 2 mps 746 mmHg 53%
14:00 +26°C° 0 mm 2 mps 745 mmHg 51%
15:00 +26°C° 0 mm 2 mps 745 mmHg 54%
16:00 +26°C° 0 mm 2 mps 745 mmHg 56%
17:00 +26°C° 0 mm 2 mps 744 mmHg 59%
18:00 +24°C° 0 mm 2 mps 744 mmHg 63%
19:00 +21°C° 0 mm 2 mps 744 mmHg 66%
20:00 +21°C° 0 mm 1 mps 744 mmHg 70%
21:00 +19°C° 0 mm 2 mps 744 mmHg 71%
22:00 +19°C° 0 mm 2 mps 744 mmHg 72%
23:00 +18°C° 0 mm 2 mps 743 mmHg 73%
Show more